| time (UTC) | temp F | wind direction | speed knots | gust knots | rain 1hr in | rain 24hr in | rain mn in | humidity % | barometer mb |
| 20260503185139 | 60 | 93 | 5.2 | 10.4 | 0.00 | 0.00 | 0.00 | 43 | 1015.8 |
| 20260503184611 | 59 | 107 | 5.2 | 13.0 | 0.00 | 0.00 | 0.00 | 37 | 1015.9 |
| 20260503184519 | 59 | 165 | 4.3 | 13.0 | 0.00 | 0.00 | 0.00 | 37 | 1016.7 |
| 20260503184110 | 59 | 125 | 5.2 | 13.0 | 0.00 | 0.00 | 0.00 | 38 | 1016.0 |
| 20260503183543 | 59 | 76 | 5.2 | 13.0 | 0.00 | 0.00 | 0.00 | 37 | 1016.2 |
| 20260503183055 | 59 | 138 | 4.3 | 13.0 | 0.00 | 0.00 | 0.00 | 38 | 1017.0 |
| 20260503183037 | 60 | 200 | 5.2 | 13.0 | 0.00 | 0.00 | 0.00 | 38 | 1016.2 |
| 20260503182536 | 60 | 161 | 5.2 | 13.9 | 0.00 | 0.00 | 0.00 | 37 | 1016.1 |
| 20260503182034 | 60 | 20 | 6.1 | 15.6 | 0.00 | 0.00 | 0.00 | 35 | 1016.2 |
| 20260503181547 | 60 | 113 | 6.1 | 15.6 | 0.00 | 0.00 | 0.00 | 36 | 1017.1 |
| 20260503181509 | 61 | 131 | 5.2 | 14.8 | 0.00 | 0.00 | 0.00 | 36 | 1016.3 |
| 20260503181004 | 61 | 151 | 4.3 | 13.0 | 0.00 | 0.00 | 0.00 | 39 | 1016.3 |
| 20260503180501 | 60 | 99 | 5.2 | 13.0 | 0.00 | 0.00 | 0.00 | 38 | 1016.4 |
| 20260503180153 | 60 | 84 | 5.2 | 14.8 | 0.00 | 0.00 | 0.00 | 36 | 1016.5 |
| 20260503175433 | 60 | 75 | 5.2 | 14.8 | 0.00 | 0.00 | 0.00 | 37 | 1016.5 |
| 20260503174906 | 60 | 123 | 5.2 | 13.0 | 0.00 | 0.00 | 0.00 | 38 | 1016.6 |
| 20260503174506 | 59 | 187 | 7.0 | 13.9 | 0.00 | 0.00 | 0.00 | 38 | 1017.3 |
| 20260503174339 | 60 | 126 | 5.2 | 13.9 | 0.00 | 0.00 | 0.00 | 38 | 1016.5 |
| 20260503174100 | 60 | 137 | 5.2 | 13.9 | 0.00 | 0.00 | 0.00 | 37 | 1016.7 |
| 20260503173312 | 60 | 165 | 5.2 | 13.9 | 0.00 | 0.00 | 0.00 | 38 | 1016.8 |
| 20260503173002 | 59 | 90 | 5.2 | 12.2 | 0.00 | 0.00 | 0.00 | 37 | 1017.7 |
| 20260503172813 | 60 | 63 | 5.2 | 13.9 | 0.00 | 0.00 | 0.00 | 38 | 1016.8 |
| 20260503172249 | 60 | 60 | 5.2 | 13.9 | 0.00 | 0.00 | 0.00 | 38 | 1017.0 |
| 20260503171723 | 59 | 167 | 6.1 | 13.9 | 0.00 | 0.00 | 0.00 | 42 | 1017.2 |
| 20260503171541 | 58 | 132 | 6.1 | 13.9 | 0.00 | 0.00 | 0.00 | 36 | 1017.9 |
| 20260503171412 | 59 | 216 | 5.2 | 11.3 | 0.00 | 0.00 | 0.00 | 37 | 1017.3 |
| 20260503170651 | 59 | 91 | 6.1 | 13.0 | 0.00 | 0.00 | 0.00 | 38 | 1017.5 |
| 20260503170148 | 59 | 145 | 6.1 | 14.8 | 0.00 | 0.00 | 0.00 | 40 | 1017.5 |
| 20260503150923 | 55 | 112 | 4.3 | 11.3 | 0.00 | 0.00 | 0.00 | 50 | 1018.8 |
| 20260503150622 | 54 | 193 | 5.2 | 13.0 | 0.00 | 0.00 | 0.00 | 47 | 1018.8 |
| 20260503150124 | 54 | 210 | 5.2 | 13.0 | 0.00 | 0.00 | 0.00 | 46 | 1018.8 |
| 20260503131329 | 46 | 135 | 2.6 | 7.0 | 0.00 | 0.00 | 0.00 | 67 | 1018.8 |
| 20260503131052 | 45 | 273 | 1.7 | 4.3 | 0.00 | 0.00 | 0.00 | 73 | 1018.8 |
| 20260503130547 | 45 | 273 | 2.6 | 4.3 | 0.00 | 0.00 | 0.00 | 73 | 1018.8 |
| 20260503110754 | 38 | 305 | 0.0 | 2.6 | 0.00 | 0.00 | 0.00 | 82 | 1018.3 |
| 20260503110252 | 38 | 301 | 0.9 | 2.6 | 0.00 | 0.00 | 0.00 | 82 | 1018.2 |
| 20260503100109 | 37 | 306 | 0.0 | 1.7 | 0.00 | 0.00 | 0.00 | 86 | 1018.5 |
| 20260503090148 | 38 | 286 | 0.0 | 2.6 | 0.00 | 0.00 | 0.00 | 84 | 1017.7 |
| 20260503081539 | 38 | 284 | 0.0 | 2.6 | 0.00 | 0.00 | 0.00 | 83 | 1018.4 |
| 20260503081515 | 38 | 284 | 0.0 | 2.6 | 0.00 | 0.00 | 0.00 | 83 | 1017.6 |
| 20260503081256 | 38 | 284 | 0.9 | 1.7 | 0.00 | 0.00 | 0.00 | 83 | 1017.6 |
| 20260503080450 | 38 | 284 | 0.9 | 2.6 | 0.00 | 0.00 | 0.00 | 83 | 1017.5 |
| 20260503072734 | 38 | 284 | 0.0 | 0.9 | 0.00 | 0.00 | 0.00 | 84 | 1017.5 |
| 20260503072227 | 38 | 284 | 0.0 | 0.9 | 0.00 | 0.00 | 0.00 | 84 | 1017.5 |
| 20260503071725 | 38 | 284 | 0.0 | 0.9 | 0.00 | 0.00 | 0.00 | 84 | 1017.5 |
| 20260503071603 | 37 | 284 | 0.0 | 0.9 | 0.00 | 0.00 | 0.00 | 84 | 1018.3 |
| 20260503071159 | 38 | 284 | 0.0 | 0.9 | 0.00 | 0.00 | 0.00 | 84 | 1017.5 |
| 20260503070629 | 38 | 284 | 0.0 | 0.9 | 0.00 | 0.00 | 0.00 | 83 | 1017.6 |
| 20260503070345 | 38 | 284 | 0.0 | 0.9 | 0.00 | 0.00 | 0.00 | 83 | 1017.6 |
| 20260503060109 | 39 | 284 | 0.0 | 0.9 | 0.00 | 0.00 | 0.00 | 78 | 1018.6 |
| 20260503054802 | 40 | 284 | 0.0 | 0.9 | 0.00 | 0.00 | 0.00 | 77 | 1017.9 |
| 20260503054557 | 40 | 284 | 0.0 | 0.9 | 0.00 | 0.00 | 0.00 | 76 | 1018.7 |
| 20260503054238 | 40 | 284 | 0.0 | 1.7 | 0.00 | 0.00 | 0.00 | 76 | 1017.9 |
| 20260503053711 | 41 | 284 | 0.0 | 1.7 | 0.00 | 0.00 | 0.00 | 75 | 1017.9 |
| 20260503053204 | 41 | 284 | 0.0 | 1.7 | 0.00 | 0.00 | 0.00 | 75 | 1017.8 |
| 20260503053002 | 40 | 284 | 0.0 | 1.7 | 0.00 | 0.00 | 0.00 | 75 | 1018.7 |
| 20260503052706 | 41 | 284 | 0.0 | 2.6 | 0.00 | 0.00 | 0.00 | 75 | 1017.9 |
| 20260503052144 | 41 | 284 | 0.9 | 2.6 | 0.00 | 0.00 | 0.00 | 75 | 1017.9 |
| 20260503051858 | 41 | 284 | 0.0 | 1.7 | 0.00 | 0.00 | 0.00 | 75 | 1017.9 |
| 20260503051523 | 40 | 284 | 0.0 | 0.9 | 0.00 | 0.00 | 0.00 | 75 | 1018.7 |
| 20260503051341 | 41 | 284 | 0.0 | 1.7 | 0.00 | 0.00 | 0.00 | 74 | 1017.9 |
| 20260503050821 | 41 | 284 | 0.0 | 1.7 | 0.00 | 0.00 | 0.00 | 74 | 1017.8 |
| 20260503050050 | 41 | 284 | 0.0 | 1.7 | 0.00 | 0.00 | 0.00 | 73 | 1017.9 |
| 20260503050020 | 41 | 283 | 0.0 | 1.7 | 0.00 | 0.00 | 0.00 | 73 | 1018.7 |
| 20260503045524 | 41 | 284 | 0.0 | 0.9 | 0.00 | 0.00 | 0.00 | 72 | 1017.9 |
| 20260503045014 | 41 | 284 | 0.0 | 0.9 | 0.00 | 0.00 | 0.00 | 71 | 1017.9 |
| 20260503044733 | 42 | 284 | 0.0 | 2.6 | 0.00 | 0.00 | 0.00 | 71 | 1017.8 |
| 20260503044546 | 41 | 284 | 0.0 | 1.7 | 0.00 | 0.00 | 0.00 | 71 | 1018.7 |
| 20260503044011 | 42 | 283 | 0.9 | 2.6 | 0.00 | 0.00 | 0.00 | 70 | 1017.8 |
| 20260503043511 | 42 | 283 | 0.9 | 2.6 | 0.00 | 0.00 | 0.00 | 70 | 1017.9 |
| 20260503043212 | 42 | 283 | 0.0 | 1.7 | 0.00 | 0.00 | 0.00 | 70 | 1017.9 |
| 20260503043025 | 41 | 283 | 0.9 | 2.6 | 0.00 | 0.00 | 0.00 | 70 | 1018.7 |
| 20260503042422 | 42 | 283 | 0.0 | 1.7 | 0.00 | 0.00 | 0.00 | 70 | 1018.0 |
| 20260503041855 | 42 | 283 | 0.0 | 1.7 | 0.00 | 0.00 | 0.00 | 69 | 1017.9 |
| 20260503041544 | 41 | 283 | 0.0 | 1.7 | 0.00 | 0.00 | 0.00 | 68 | 1018.7 |
| 20260503041353 | 41 | 282 | 0.0 | 1.7 | 0.00 | 0.00 | 0.00 | 68 | 1017.9 |
| 20260503040849 | 41 | 282 | 0.0 | 0.9 | 0.00 | 0.00 | 0.00 | 68 | 1017.9 |
| 20260503040352 | 42 | 282 | 0.0 | 0.0 | 0.00 | 0.00 | 0.00 | 67 | 1017.9 |
| 20260503040006 | 41 | 282 | 0.0 | 0.0 | 0.00 | 0.00 | 0.00 | 66 | 1018.7 |
| 20260503035836 | 42 | 282 | 0.0 | 0.0 | 0.00 | 0.00 | 0.00 | 66 | 1017.9 |
| 20260503035336 | 42 | 282 | 0.0 | 0.9 | 0.00 | 0.00 | 0.00 | 66 | 1017.8 |
| 20260503034833 | 42 | 282 | 0.0 | 0.9 | 0.00 | 0.00 | 0.00 | 66 | 1017.9 |
| 20260503034540 | 42 | 282 | 0.0 | 0.9 | 0.00 | 0.00 | 0.00 | 66 | 1018.6 |
| 20260503034332 | 42 | 282 | 0.0 | 0.9 | 0.00 | 0.00 | 0.00 | 66 | 1017.8 |
| 20260503033832 | 42 | 282 | 0.0 | 0.9 | 0.00 | 0.00 | 0.00 | 66 | 1017.8 |
| 20260503033329 | 42 | 282 | 0.0 | 0.9 | 0.00 | 0.00 | 0.00 | 64 | 1017.8 |
| 20260503033038 | 42 | 282 | 0.0 | 0.9 | 0.00 | 0.00 | 0.00 | 62 | 1018.6 |
| 20260503032803 | 42 | 282 | 0.0 | 0.0 | 0.00 | 0.00 | 0.00 | 61 | 1017.8 |
| 20260503032236 | 42 | 282 | 0.0 | 0.0 | 0.00 | 0.00 | 0.00 | 61 | 1017.8 |
| 20260503031731 | 43 | 282 | 0.0 | 0.0 | 0.00 | 0.00 | 0.00 | 58 | 1017.9 |
| 20260503031206 | 43 | 282 | 0.0 | 0.0 | 0.00 | 0.00 | 0.00 | 57 | 1017.9 |
| 20260503030701 | 43 | 282 | 0.0 | 0.9 | 0.00 | 0.00 | 0.00 | 57 | 1017.9 |
| 20260503030042 | 43 | 282 | 0.0 | 0.0 | 0.00 | 0.00 | 0.00 | 57 | 1018.6 |
| 20260503025633 | 43 | 282 | 0.0 | 0.9 | 0.00 | 0.00 | 0.00 | 57 | 1017.9 |
| 20260503025108 | 43 | 282 | 0.0 | 0.9 | 0.00 | 0.00 | 0.00 | 57 | 1017.9 |
| 20260503024543 | 43 | 282 | 0.0 | 0.9 | 0.00 | 0.00 | 0.00 | 57 | 1017.9 |
| 20260503024514 | 43 | 282 | 0.0 | 0.9 | 0.00 | 0.00 | 0.00 | 57 | 1018.7 |
| 20260503024014 | 44 | 282 | 0.0 | 0.9 | 0.00 | 0.00 | 0.00 | 57 | 1017.9 |
| 20260503023447 | 44 | 282 | 0.0 | 0.9 | 0.00 | 0.00 | 0.00 | 58 | 1017.9 |
| 20260503023147 | 44 | 282 | 0.0 | 1.7 | 0.00 | 0.00 | 0.00 | 58 | 1017.9 |
| 20260503023056 | 43 | 282 | 0.0 | 1.7 | 0.00 | 0.00 | 0.00 | 58 | 1018.7 |
| 20260503022352 | 44 | 282 | 0.0 | 0.9 | 0.00 | 0.00 | 0.00 | 59 | 1017.9 |
| 20260503021847 | 44 | 282 | 0.0 | 0.9 | 0.00 | 0.00 | 0.00 | 59 | 1017.9 |
| 20260503021608 | 44 | 282 | 0.0 | 1.7 | 0.00 | 0.00 | 0.00 | 59 | 1017.8 |
| 20260503021535 | 44 | 282 | 0.0 | 0.9 | 0.00 | 0.00 | 0.00 | 59 | 1018.6 |
| 20260503020821 | 44 | 282 | 0.9 | 2.6 | 0.00 | 0.00 | 0.00 | 59 | 1017.8 |
| 20260503020251 | 44 | 282 | 0.0 | 2.6 | 0.00 | 0.00 | 0.00 | 59 | 1017.7 |
| 20260503020049 | 44 | 282 | 0.0 | 1.7 | 0.00 | 0.00 | 0.00 | 59 | 1018.5 |
| 20260503015749 | 44 | 282 | 0.0 | 1.7 | 0.00 | 0.00 | 0.00 | 59 | 1017.7 |
| 20260503015245 | 44 | 282 | 0.0 | 1.7 | 0.00 | 0.00 | 0.00 | 59 | 1017.6 |
| 20260503014743 | 44 | 282 | 0.9 | 1.7 | 0.00 | 0.00 | 0.00 | 59 | 1017.6 |
| 20260503014608 | 44 | 282 | 0.0 | 1.7 | 0.00 | 0.00 | 0.00 | 59 | 1018.4 |
| 20260503014240 | 45 | 282 | 0.9 | 2.6 | 0.00 | 0.00 | 0.00 | 59 | 1017.6 |
| 20260503013233 | 45 | 282 | 0.9 | 2.6 | 0.00 | 0.00 | 0.00 | 59 | 1017.5 |
| 20260503013039 | 44 | 282 | 0.9 | 2.6 | 0.00 | 0.00 | 0.00 | 58 | 1018.2 |
| 20260503012731 | 45 | 282 | 0.9 | 1.7 | 0.00 | 0.00 | 0.00 | 58 | 1017.4 |
| 20260503012204 | 45 | 282 | 0.9 | 2.6 | 0.00 | 0.00 | 0.00 | 58 | 1017.4 |
| 20260503011700 | 45 | 283 | 0.9 | 2.6 | 0.00 | 0.00 | 0.00 | 57 | 1017.3 |
| 20260503011553 | 45 | 282 | 0.0 | 2.6 | 0.00 | 0.00 | 0.00 | 57 | 1018.0 |
| 20260503011151 | 45 | 283 | 0.9 | 2.6 | 0.00 | 0.00 | 0.00 | 57 | 1017.3 |
| 20260503010622 | 46 | 283 | 0.9 | 2.6 | 0.00 | 0.00 | 0.00 | 57 | 1017.2 |
| 20260503010121 | 46 | 283 | 0.9 | 2.6 | 0.00 | 0.00 | 0.00 | 56 | 1017.2 |
| 20260503010008 | 45 | 284 | 0.0 | 1.7 | 0.00 | 0.00 | 0.00 | 56 | 1017.9 |
| 20260503005832 | 46 | 282 | 0.9 | 2.6 | 0.00 | 0.00 | 0.00 | 56 | 1017.2 |
| 20260503005315 | 46 | 282 | 0.9 | 2.6 | 0.00 | 0.00 | 0.00 | 55 | 1017.1 |
| 20260503004522 | 47 | 282 | 0.9 | 2.6 | 0.00 | 0.00 | 0.00 | 54 | 1017.1 |
| 20260503004506 | 46 | 282 | 0.9 | 2.6 | 0.00 | 0.00 | 0.00 | 54 | 1017.8 |
| 20260503003955 | 47 | 282 | 0.9 | 3.5 | 0.00 | 0.00 | 0.00 | 53 | 1017.0 |
| 20260503003427 | 47 | 282 | 0.9 | 3.5 | 0.00 | 0.00 | 0.00 | 53 | 1017.1 |
| 20260503003008 | 47 | 282 | 0.0 | 2.6 | 0.00 | 0.00 | 0.00 | 53 | 1017.8 |
| 20260503002925 | 47 | 282 | 0.9 | 3.5 | 0.00 | 0.00 | 0.00 | 53 | 1017.1 |
| 20260503002613 | 48 | 282 | 1.7 | 3.5 | 0.00 | 0.00 | 0.00 | 52 | 1017.1 |
| 20260503001855 | 48 | 282 | 1.7 | 5.2 | 0.00 | 0.00 | 0.00 | 51 | 1017.0 |
| 20260503001519 | 48 | 282 | 1.7 | 5.2 | 0.00 | 0.00 | 0.00 | 52 | 1017.7 |
| 20260503001327 | 49 | 282 | 1.7 | 2.6 | 0.00 | 0.00 | 0.00 | 51 | 1016.8 |
| 20260503000800 | 49 | 278 | 1.7 | 6.1 | 0.00 | 0.00 | 0.00 | 51 | 1016.7 |
| 20260503000236 | 49 | 273 | 1.7 | 6.1 | 0.00 | 0.00 | 0.00 | 50 | 1016.7 |
| 20260503000054 | 49 | 273 | 1.7 | 5.2 | 0.00 | 0.00 | 0.00 | 50 | 1017.5 |
| 20260502235710 | 50 | 273 | 1.7 | 4.3 | 0.00 | 0.00 | 0.00 | 50 | 1016.6 |
| 20260502235430 | 50 | 273 | 1.7 | 4.3 | 0.00 | 0.00 | 0.00 | 49 | 1016.6 |
| 20260502234638 | 50 | 290 | 1.7 | 8.7 | 0.00 | 0.00 | 0.00 | 49 | 1016.5 |
| 20260502234552 | 50 | 273 | 0.9 | 8.7 | 0.00 | 0.00 | 0.00 | 49 | 1017.4 |
| 20260502234135 | 50 | 288 | 0.9 | 8.7 | 0.00 | 0.00 | 0.00 | 49 | 1016.5 |
| 20260502233829 | 50 | 273 | 1.7 | 4.3 | 0.00 | 0.00 | 0.00 | 50 | 1016.4 |
| 20260502233106 | 50 | 278 | 1.7 | 4.3 | 0.00 | 0.00 | 0.00 | 48 | 1016.4 |
| 20260502233040 | 49 | 278 | 1.7 | 4.3 | 0.00 | 0.00 | 0.00 | 48 | 1017.2 |
| 20260502232601 | 50 | 282 | 1.7 | 7.0 | 0.00 | 0.00 | 0.00 | 48 | 1016.4 |
| 20260502232341 | 50 | 282 | 2.6 | 7.0 | 0.00 | 0.00 | 0.00 | 48 | 1016.4 |
| 20260502232236 | 50 | 287 | 2.6 | 7.0 | 0.00 | 0.00 | 0.00 | 48 | 1016.4 |
| 20260502231549 | 50 | 282 | 1.7 | 7.0 | 0.00 | 0.00 | 0.00 | 48 | 1017.2 |
| 20260502231029 | 51 | 288 | 1.7 | 7.8 | 0.00 | 0.00 | 0.00 | 46 | 1016.4 |
| 20260502230518 | 51 | 286 | 1.7 | 4.3 | 0.00 | 0.00 | 0.00 | 45 | 1016.4 |
| 20260502230105 | 51 | 282 | 0.9 | 3.5 | 0.00 | 0.00 | 0.00 | 45 | 1017.2 |
| 20260502225940 | 52 | 288 | 1.7 | 3.5 | 0.00 | 0.00 | 0.00 | 44 | 1016.3 |
| 20260502225438 | 52 | 273 | 1.7 | 8.7 | 0.00 | 0.00 | 0.00 | 44 | 1016.3 |
| 20260502225129 | 53 | 278 | 1.7 | 8.7 | 0.00 | 0.00 | 0.00 | 43 | 1016.2 |
| 20260502224551 | 53 | 287 | 0.9 | 8.7 | 0.00 | 0.00 | 0.00 | 45 | 1017.0 |
| 20260502224403 | 53 | 234 | 1.7 | 6.1 | 0.00 | 0.00 | 0.00 | 44 | 1016.2 |
| 20260502223834 | 53 | 282 | 2.6 | 6.1 | 0.00 | 0.00 | 0.00 | 44 | 1016.2 |
| 20260502223331 | 52 | 273 | 2.6 | 7.0 | 0.00 | 0.00 | 0.00 | 44 | 1016.2 |
| 20260502223043 | 52 | 289 | 1.7 | 7.0 | 0.00 | 0.00 | 0.00 | 44 | 1016.9 |
| 20260502222810 | 52 | 288 | 1.7 | 6.1 | 0.00 | 0.00 | 0.00 | 46 | 1016.1 |
| 20260502222804 | 52 | 273 | 1.7 | 5.2 | 0.00 | 0.00 | 0.00 | 44 | 1016.1 |
| 20260502221735 | 52 | 291 | 2.6 | 7.0 | 0.00 | 0.00 | 0.00 | 44 | 1016.1 |
| 20260502221557 | 51 | 286 | 2.6 | 7.0 | 0.00 | 0.00 | 0.00 | 43 | 1016.9 |
| 20260502221206 | 52 | 290 | 2.6 | 5.2 | 0.00 | 0.00 | 0.00 | 44 | 1016.1 |
| 20260502220704 | 52 | 290 | 1.7 | 6.1 | 0.00 | 0.00 | 0.00 | 43 | 1016.1 |
| 20260502220137 | 52 | 282 | 1.7 | 6.1 | 0.00 | 0.00 | 0.00 | 44 | 1016.2 |
| 20260502220015 | 52 | 289 | 0.9 | 4.3 | 0.00 | 0.00 | 0.00 | 47 | 1017.0 |
| 20260502215631 | 52 | 273 | 1.7 | 5.2 | 0.00 | 0.00 | 0.00 | 44 | 1016.0 |
| 20260502215114 | 52 | 273 | 2.6 | 5.2 | 0.00 | 0.00 | 0.00 | 45 | 1016.0 |
| 20260502214610 | 53 | 273 | 1.7 | 5.2 | 0.00 | 0.00 | 0.00 | 43 | 1016.0 |
| 20260502214528 | 52 | 273 | 1.7 | 5.2 | 0.00 | 0.00 | 0.00 | 42 | 1016.8 |
| 20260502214112 | 53 | 273 | 1.7 | 4.3 | 0.00 | 0.00 | 0.00 | 43 | 1016.0 |
| 20260502213613 | 53 | 273 | 2.6 | 4.3 | 0.00 | 0.00 | 0.00 | 42 | 1015.9 |
| 20260502213109 | 53 | 273 | 3.5 | 9.6 | 0.00 | 0.00 | 0.00 | 41 | 1015.9 |
| 20260502213017 | 53 | 273 | 2.6 | 6.1 | 0.00 | 0.00 | 0.00 | 42 | 1016.7 |
| 20260502212607 | 54 | 299 | 3.5 | 9.6 | 0.00 | 0.00 | 0.00 | 38 | 1015.8 |
| 20260502212039 | 55 | 144 | 2.6 | 8.7 | 0.00 | 0.00 | 0.00 | 46 | 1015.9 |
| 20260502211539 | 53 | 288 | 2.6 | 7.8 | 0.00 | 0.00 | 0.00 | 42 | 1015.9 |
| 20260502211507 | 53 | 288 | 3.5 | 7.8 | 0.00 | 0.00 | 0.00 | 42 | 1016.7 |
| 20260502211011 | 53 | 273 | 2.6 | 5.2 | 0.00 | 0.00 | 0.00 | 42 | 1015.8 |
| 20260502210507 | 53 | 273 | 2.6 | 5.2 | 0.00 | 0.00 | 0.00 | 42 | 1015.9 |
| 20260502210119 | 53 | 273 | 1.7 | 7.8 | 0.00 | 0.00 | 0.00 | 42 | 1016.6 |
| 20260502205941 | 53 | 287 | 2.6 | 7.8 | 0.00 | 0.00 | 0.00 | 42 | 1015.8 |
| 20260502205436 | 54 | 282 | 2.6 | 7.8 | 0.00 | 0.00 | 0.00 | 40 | 1015.8 |
| 20260502204913 | 53 | 288 | 2.6 | 7.8 | 0.00 | 0.00 | 0.00 | 44 | 1015.8 |
| 20260502204819 | 53 | 288 | 2.6 | 7.8 | 0.00 | 0.00 | 0.00 | 42 | 1015.9 |
| 20260502204512 | 53 | 286 | 1.7 | 7.8 | 0.00 | 0.00 | 0.00 | 42 | 1016.6 |
| 20260502203842 | 53 | 273 | 3.5 | 8.7 | 0.00 | 0.00 | 0.00 | 45 | 1015.9 |
| 20260502203328 | 52 | 273 | 2.6 | 8.7 | 0.00 | 0.00 | 0.00 | 42 | 1015.9 |
| 20260502203018 | 52 | 291 | 3.5 | 8.7 | 0.00 | 0.00 | 0.00 | 41 | 1016.7 |
| 20260502202827 | 53 | 287 | 2.6 | 9.6 | 0.00 | 0.00 | 0.00 | 42 | 1015.9 |
| 20260502202516 | 53 | 288 | 3.5 | 9.6 | 0.00 | 0.00 | 0.00 | 42 | 1016.0 |
| 20260502202025 | 53 | 288 | 2.6 | 9.6 | 0.00 | 0.00 | 0.00 | 43 | 1016.0 |
| 20260502201531 | 53 | 286 | 2.6 | 5.2 | 0.00 | 0.00 | 0.00 | 42 | 1016.8 |
| 20260502201457 | 54 | 282 | 2.6 | 10.4 | 0.00 | 0.00 | 0.00 | 40 | 1016.0 |
| 20260502200706 | 53 | 289 | 3.5 | 10.4 | 0.00 | 0.00 | 0.00 | 40 | 1016.1 |
| 20260502200138 | 53 | 286 | 3.5 | 9.6 | 0.00 | 0.00 | 0.00 | 44 | 1016.1 |
| 20260502200050 | 52 | 288 | 3.5 | 8.7 | 0.00 | 0.00 | 0.00 | 41 | 1016.9 |
| 20260502195900 | 53 | 286 | 3.5 | 10.4 | 0.00 | 0.00 | 0.00 | 43 | 1016.1 |
| 20260502195135 | 54 | 287 | 3.5 | 10.4 | 0.00 | 0.00 | 0.00 | 40 | 1016.2 |
| 20260502194631 | 55 | 224 | 2.6 | 7.8 | 0.00 | 0.00 | 0.00 | 40 | 1016.2 |
| 20260502194609 | 55 | 223 | 2.6 | 7.8 | 0.00 | 0.00 | 0.00 | 39 | 1017.0 |
| 20260502194106 | 55 | 144 | 3.5 | 7.8 | 0.00 | 0.00 | 0.00 | 41 | 1016.2 |
| 20260502193558 | 55 | 314 | 2.6 | 7.8 | 0.00 | 0.00 | 0.00 | 40 | 1016.2 |
| 20260502193057 | 55 | 284 | 2.6 | 7.0 | 0.00 | 0.00 | 0.00 | 41 | 1016.2 |
| 20260502193025 | 54 | 284 | 2.6 | 6.1 | 0.00 | 0.00 | 0.00 | 41 | 1017.0 |
| 20260502192531 | 55 | 284 | 2.6 | 7.0 | 0.00 | 0.00 | 0.00 | 41 | 1016.2 |
| 20260502192223 | 55 | 282 | 2.6 | 7.0 | 0.00 | 0.00 | 0.00 | 39 | 1016.4 |
| 20260502191514 | 54 | 262 | 2.6 | 7.0 | 0.00 | 0.00 | 0.00 | 42 | 1017.2 |
| 20260502191437 | 55 | 209 | 2.6 | 7.0 | 0.00 | 0.00 | 0.00 | 41 | 1016.4 |
| 20260502190912 | 54 | 289 | 2.6 | 9.6 | 0.00 | 0.00 | 0.00 | 42 | 1016.3 |
| 20260502190346 | 53 | 288 | 3.5 | 9.6 | 0.00 | 0.00 | 0.00 | 41 | 1016.4 |
| 20260502190056 | 53 | 288 | 2.6 | 9.6 | 0.00 | 0.00 | 0.00 | 39 | 1017.3 |
| 20260502185823 | 54 | 289 | 3.5 | 8.7 | 0.00 | 0.00 | 0.00 | 39 | 1016.5 |
| 20260502185543 | 54 | 285 | 2.6 | 8.7 | 0.00 | 0.00 | 0.00 | 39 | 1016.6 |